Tracking 29892 objects as of 21-Nov-2024
HD Live streaming from Space Station
objects crossing your sky now

FENGYUN 1C DEB

Track FENGYUN 1C DEB now!
10-day predictions


NORAD ID: 30200
Int'l Code: 1999-025VH
Perigee: 719.8 km
Apogee: 933.5 km
Inclination: 99.1 °
Period: 101.3 minutes
Semi major axis: 7197 km
RCS: 0.0347 m2 (small)
Launch date: May 10, 1999
Source: People's Republic of China (PRC)
Launch site: Taiyaun Space Center, China (TSC)

Note: This is SATELLITE DEBRIS
Your satellite tracking list
Your tracking list is empty




NASA's NSSDC Master Catalog

Two Line Element Set (TLE):
1 30200U 99025VH  24325.45407856  .00000748  00000-0  32292-3 0  9995
2 30200  99.1154 140.9815 0148452 125.3504 236.1651 14.21737446924781
Source of the keplerian elements: AFSPC